G4CVN Weather Reports


Display with metric or nautical units.
time (UTC)temp
F
wind
direction
speed
MPH
gust
MPH
rain 1hr
in
rain 24hr
in
rain mn
in
humidity
%
barometer
mb
20260510163516 53 315 1.0 4.0 0.00 0.04 0.04 82 1017.6
20260510162516 53 23 1.0 4.0 0.00 0.04 0.04 84 1017.8
20260510161516 53 0.0 2.0 0.00 0.04 0.04 86 1017.9
20260510160516 53 315 1.0 4.0 0.00 0.04 0.04 85 1018.1
20260510155516 52 338 1.0 3.0 0.00 0.04 0.04 86 1018.2
20260510154556 52 0.0 2.0 0.00 0.04 0.04 86 1018.3
20260510153516 52 315 1.0 3.0 0.00 0.04 0.04 87 1018.4
20260510152516 52 45 1.0 3.0 0.00 0.04 0.04 88 1018.4
20260510151636 52 0.0 2.0 0.00 0.04 0.04 89 1018.5
20260510150516 52 23 1.0 2.0 0.00 0.04 0.04 88 1018.6
20260510145516 52 0 1.0 3.0 0.00 0.04 0.04 89 1018.7
20260510144516 52 315 1.0 2.0 0.01 0.04 0.04 88 1018.8
20260510143516 52 315 1.0 4.0 0.01 0.04 0.04 88 1019.0
20260510142516 52 68 1.0 5.0 0.02 0.04 0.04 88 1019.1
20260510141516 52 315 1.0 4.0 0.02 0.04 0.04 87 1019.0
20260510140516 52 0 1.0 4.0 0.02 0.04 0.04 88 1019.1
20260510135516 52 315 1.0 2.0 0.03 0.04 0.04 87 1019.2
20260510134516 52 293 1.0 4.0 0.03 0.03 0.03 87 1019.2
20260510133516 52 338 2.0 6.0 0.03 0.03 0.03 86 1019.1
20260510132536 53 338 1.0 4.0 0.02 0.02 0.02 85 1019.0
20260510131516 53 0 2.0 7.0 0.02 0.02 0.02 84 1019.0
20260510130516 53 338 1.0 4.0 0.02 0.02 0.02 84 1019.1
20260510125516 54 0 1.0 5.0 0.01 0.01 0.01 83 1019.4
20260510124516 54 315 1.0 5.0 0.00 0.00 0.00 82 1019.5
20260510123536 54 23 1.0 4.0 0.00 0.00 0.00 81 1019.5
20260510122516 54 0 1.0 4.0 0.00 0.00 0.00 80 1019.6
20260510121556 55 315 1.0 3.0 0.00 0.00 0.00 79 1019.6
20260510120516 55 315 2.0 5.0 0.00 0.00 0.00 78 1019.8
20260510115516 55 23 1.0 4.0 0.00 0.00 0.00 79 1019.8
20260510114516 55 0 1.0 5.0 0.00 0.00 0.00 80 1019.8
20260510113516 55 338 2.0 5.0 0.00 0.00 0.00 80 1019.7
20260510112516 55 293 1.0 6.0 0.00 0.00 0.00 79 1019.8
20260510111516 55 338 2.0 7.0 0.00 0.00 0.00 76 1019.9
20260510110516 55 315 1.0 5.0 0.00 0.00 0.00 75 1019.9
20260510105516 55 0 1.0 3.0 0.00 0.00 0.00 76 1020.0
20260510104518 55 338 2.0 7.0 0.00 0.00 0.00 76 1020.1
20260510103616 54 293 1.0 5.0 0.00 0.00 0.00 77 1020.2
20260510102516 54 338 1.0 4.0 0.00 0.00 0.00 78 1020.2
20260510101516 54 0 2.0 4.0 0.00 0.00 0.00 77 1020.2
20260510100516 54 338 1.0 5.0 0.00 0.00 0.00 78 1020.2
20260510095516 54 270 1.0 5.0 0.00 0.00 0.00 77 1020.2
20260510094516 54 338 2.0 7.0 0.00 0.00 0.00 76 1020.1
20260510093516 54 338 2.0 4.0 0.00 0.00 0.00 75 1019.8
20260510092536 54 293 2.0 8.0 0.00 0.00 0.00 75 1019.9
20260510091516 54 293 1.0 5.0 0.00 0.00 0.00 76 1020.0
20260510090516 54 0 1.0 4.0 0.00 0.00 0.00 77 1020.2
20260510085516 54 0 1.0 3.0 0.00 0.00 0.00 77 1020.2
20260510084516 53 0 1.0 8.0 0.00 0.00 0.00 78 1020.3
20260510083516 53 315 1.0 4.0 0.00 0.00 0.00 78 1020.5
20260510082516 53 315 1.0 5.0 0.00 0.00 0.00 78 1020.6
20260510081536 53 338 2.0 6.0 0.00 0.00 0.00 79 1020.6
20260510080516 53 338 1.0 4.0 0.00 0.00 0.00 80 1020.6
20260510075516 53 315 1.0 4.0 0.00 0.00 0.00 80 1020.5
20260510074516 52 0 1.0 4.0 0.00 0.00 0.00 81 1020.4
20260510073536 52 293 1.0 2.0 0.00 0.00 0.00 81 1020.6
20260510072536 52 23 1.0 4.0 0.00 0.00 0.00 81 1020.6
20260510071516 52 0 1.0 4.0 0.00 0.00 0.00 82 1020.7
20260510070516 52 0 1.0 3.0 0.00 0.00 0.00 83 1020.7
20260510065516 51 338 1.0 3.0 0.00 0.00 0.00 84 1020.7
20260510064516 51 0.0 2.0 0.00 0.00 0.00 84 1020.7
20260510063516 51 0 1.0 3.0 0.00 0.00 0.00 85 1020.8
20260510062516 51 0.0 3.0 0.00 0.00 0.00 85 1020.8
20260510061516 51 0.0 2.0 0.00 0.00 0.00 85 1020.8
20260510060516 50 23 1.0 3.0 0.00 0.00 0.00 85 1020.8
20260510055517 50 0.0 2.0 0.00 0.00 0.00 86 1020.7
20260510054516 50 23 1.0 5.0 0.00 0.00 0.00 86 1020.6
20260510053516 50 0.0 2.0 0.00 0.00 0.00 86 1020.5
20260510052516 50 0.0 2.0 0.00 0.00 0.00 86 1020.6
20260510051536 50 0.0 2.0 0.00 0.00 0.00 86 1020.5
20260510050516 50 0.0 2.0 0.00 0.00 0.00 86 1020.5
20260510045516 50 0.0 2.0 0.00 0.00 0.00 86 1020.5
20260510044516 50 0.0 2.0 0.00 0.00 0.00 86 1020.5
20260510043516 50 23 1.0 4.0 0.00 0.00 0.00 86 1020.5
20260510042516 50 315 1.0 2.0 0.00 0.00 0.00 85 1020.6
20260510041516 50 315 1.0 3.0 0.00 0.00 0.00 85 1020.7
20260510040516 50 338 1.0 4.0 0.00 0.00 0.00 84 1020.7
20260510035537 50 0 1.0 3.0 0.00 0.00 0.00 84 1020.8
20260510034516 50 23 1.0 5.0 0.00 0.00 0.00 84 1020.8
20260510033516 50 45 1.0 5.0 0.00 0.00 0.00 83 1020.7
20260510032516 51 0 2.0 5.0 0.00 0.00 0.00 83 1020.8
20260510031516 51 0 1.0 3.0 0.00 0.00 0.00 83 1021.0
20260510030516 51 23 1.0 3.0 0.00 0.00 0.00 82 1021.1
20260510025516 51 23 1.0 4.0 0.00 0.00 0.00 81 1021.0
20260510024536 51 338 1.0 3.0 0.00 0.00 0.00 81 1021.0
20260510023516 51 0.0 1.0 0.00 0.00 0.00 80 1020.9
20260510022516 51 0.0 1.0 0.00 0.00 0.00 80 1020.8
20260510021516 52 0.0 3.0 0.00 0.00 0.00 79 1021.0
20260510020516 52 0.0 1.0 0.00 0.00 0.00 79 1021.0
20260510015517 52 45 1.0 4.0 0.00 0.00 0.00 79 1020.8
20260510014516 52 0.0 2.0 0.00 0.00 0.00 78 1020.8
20260510013517 52 0.0 1.0 0.00 0.00 0.00 77 1020.8
20260510012517 53 0 1.0 3.0 0.00 0.00 0.00 77 1020.7
20260510011517 53 315 1.0 2.0 0.00 0.00 0.00 76 1020.8
20260510010516 53 0.0 2.0 0.00 0.00 0.00 76 1020.8
20260510005536 53 315 1.0 2.0 0.00 0.00 0.00 75 1020.8
20260510004517 53 0 1.0 2.0 0.00 0.00 0.00 74 1020.7
20260510003537 53 293 1.0 2.0 0.00 0.00 0.00 73 1020.7
20260510002516 53 0.0 3.0 0.00 0.00 0.00 73 1020.7
20260510001556 53 0.0 2.0 0.00 0.00 0.00 71 1020.7
20260510000516 53 0 1.0 2.0 0.00 0.00 0.00 69 1020.7
20260509235517 53 338 1.0 2.0 0.00 0.00 0.00 68 1020.7
20260509234517 53 0.0 2.0 0.00 0.00 0.00 68 1020.8
20260509233517 53 0.0 2.0 0.00 0.00 0.00 68 1020.9
20260509232516 53 0.0 1.0 0.00 0.00 0.00 68 1020.9
20260509231516 53 0.0 1.0 0.00 0.00 0.00 67 1020.9
20260509230517 53 0.0 2.0 0.00 0.00 0.00 67 1021.0
20260509225516 53 0.0 1.0 0.00 0.00 0.00 66 1021.0
20260509224516 53 0.0 2.0 0.00 0.00 0.00 65 1020.9
20260509223516 53 0.0 2.0 0.00 0.00 0.00 65 1020.8
20260509222516 53 0 1.0 4.0 0.00 0.00 0.00 64 1020.7
20260509221516 53 23 1.0 4.0 0.00 0.00 0.00 63 1020.9
20260509220517 54 0.0 2.0 0.00 0.00 0.00 62 1020.9
20260509215516 54 0.0 3.0 0.00 0.00 0.00 61 1020.9
20260509214516 54 0.0 2.0 0.00 0.00 0.00 60 1020.9
20260509213536 54 0.0 1.0 0.00 0.00 0.00 59 1021.0
20260509212516 55 0.0 2.0 0.00 0.00 0.00 57 1021.0
20260509211517 55 0.0 2.0 0.00 0.00 0.00 56 1020.9
20260509210516 55 0.0 1.0 0.00 0.00 0.00 55 1020.7
20260509205516 56 0.0 2.0 0.00 0.00 0.00 54 1020.6
20260509204517 56 338 1.0 2.0 0.00 0.00 0.00 54 1020.6
20260509203517 56 315 1.0 2.0 0.00 0.00 0.00 54 1020.3
20260509202516 57 23 1.0 2.0 0.00 0.00 0.00 53 1020.3
20260509201517 57 293 1.0 4.0 0.00 0.00 0.00 53 1020.1
20260509200516 58 248 1.0 2.0 0.00 0.00 0.00 53 1020.1
20260509195516 58 338 1.0 2.0 0.00 0.00 0.00 52 1020.1
20260509194517 59 315 1.0 4.0 0.00 0.00 0.00 51 1020.2
20260509193517 60 315 1.0 5.0 0.00 0.00 0.00 50 1020.0
20260509192517 60 293 1.0 4.0 0.00 0.00 0.00 51 1020.2
20260509191517 61 23 1.0 3.0 0.00 0.00 0.00 52 1020.0
20260509190516 62 0.0 2.0 0.00 0.00 0.00 52 1019.7
20260509185516 62 293 1.0 3.0 0.00 0.00 0.00 52 1019.7
20260509184516 63 293 1.0 2.0 0.00 0.00 0.00 51 1019.7
20260509183516 64 315 1.0 4.0 0.00 0.00 0.00 50 1019.7
20260509182516 64 270 2.0 4.0 0.00 0.00 0.00 48 1019.8
20260509181516 65 23 1.0 6.0 0.00 0.00 0.00 47 1019.6
20260509180516 66 315 1.0 4.0 0.00 0.00 0.00 48 1019.6
20260509175516 66 248 1.0 2.0 0.00 0.00 0.00 49 1019.6
20260509174516 67 315 1.0 4.0 0.00 0.00 0.00 49 1019.7
20260509173517 68 293 1.0 2.0 0.00 0.00 0.00 48 1019.5
20260509172516 68 293 2.0 5.0 0.00 0.00 0.00 46 1019.3
20260509171516 69 0 1.0 4.0 0.00 0.00 0.00 46 1019.3
20260509170516 70 338 1.0 4.0 0.00 0.00 0.00 45 1019.4
20260509165516 71 270 1.0 5.0 0.00 0.00 0.00 44 1019.4
20260509164517 72 315 1.0 4.0 0.00 0.00 0.00 42 1019.3